RH
66 34 37 44 54 90 82 80 55 32 23 19 15 15 16 14 12 12 14 14 16 17 16 16 15 15 15 15 14 13 11 12 15 25 37 52 71 77 78 61 85 92 58
65 32 39 54 84 91 80 69 41 26 20 15 15 16 14 12 13 14 15 15 14 12 11 10 10 10 11 12 14 15 15 14 14 24 61 80 66 72 71 82 84 84 85
67 40 52 80 90 82 72 58 31 22 17 15 16 14 12 13 14 13 9 8 10 12 14 14 14 13 12 10 9 10 14 15 15 23 72 87 88 89 82 78 76 76 79
71 63 60 83 90 77 69 46 26 19 16 17 14 12 13 13 10 9 14 17 18 19 19 20 20 20 19 18 17 14 11 12 15 32 69 72 77 66 58 61 69 70 74
81 96 88 66 82 72 58 33 24 18 17 16 13 13 13 9 12 16 16 16 17 18 19 19 20 20 21 21 20 19 16 13 14 22 22 35 69 60 33 35 40 50 65
83 93 82 69 84 62 45 28 20 18 18 14 13 14 9 13 17 16 17 18 20 22 22 22 22 22 22 22 22 22 21 18 19 16 40 52 41 22 19 18 19 20 26
77 93 72 91 76 53 34 26 20 19 18 14 13 10 12 17 17 18 20 22 23 23 23 22 23 22 22 23 23 23 23 22 37 41 51 52 22 18 16 14 16 18 20
76 98 81 86 70 42 30 24 21 19 17 14 13 10 18 18 19 21 22 23 23 22 22 22 22 22 22 22 22 23 23 24 53 55 61 57 23 20 16 14 16 18 20
81 97 93 88 71 38 30 25 23 19 16 15 11 13 19 19 20 23 23 22 22 23 24 24 24 23 23 23 23 23 23 25 44 60 75 50 24 20 15 16 21 43 66
92 98 96 83 62 36 31 28 24 20 16 15 12 18 21 21 23 23 22 22 24 24 24 24 23 22 21 22 22 24 26 47 65 79 87 84 90 68 40 50 95 86 64
90 96 95 95 75 64 38 31 28 22 17 16 14 22 23 24 25 23 22 23 24 23 22 22 21 21 21 24 25 27 44 57 73 88 100 95 99 95 88 93 96 81 79
96 98 97 92 80 79 71 33 31 23 19 18 16 24 48 32 32 22 21 24 24 21 20 21 22 22 33 58 41 51 55 60 78 95 92 97 99 100 92 92 76 99 92
98 98 99 85 78 75 74 56 45 28 36 30 22 31 38 25 26 24 22 24 22 21 21 21 23 27 34 60 61 58 59 63 79 69 55 63 98 98 97 98 97 97 97
99 99 97 87 81 76 72 67 53 33 30 23 19 26 23 27 32 40 37 25 22 24 22 22 27 27 29 51 61 64 66 71 79 80 41 61 78 97 94 98 98 91 82
98 98 98 92 86 79 62 53 43 33 26 22 19 24 26 32 41 28 28 26 21 22 26 24 38 42 56 53 57 66 69 69 72 73 37 41 48 59 96 93 98 98 92
98 97 99 98 86 81 66 50 39 27 30 20 19 23 25 40 32 22 26 24 21 20 22 25 32 36 51 63 66 69 68 58 65 69 67 39 38 39 40 45 91 98 98
99 97 98 94 83 69 68 50 44 31 25 22 19 23 22 24 26 24 25 25 22 20 20 23 24 37 47 63 68 70 69 68 67 54 48 52 35 26 21 19 23 45 82
100 99 98 97 74 61 59 50 48 40 30 26 21 21 24 23 24 26 25 22 21 21 20 21 27 34 55 64 68 64 68 69 69 62 49 43 42 48 39 36 28 21 24
99 100 90 99 74 57 64 56 55 50 40 29 24 21 26 22 23 24 25 22 21 20 20 20 21 30 37 58 59 57 61 54 54 60 54 43 35 37 39 35 34 30 28
94 100 90 100 79 58 59 63 63 62 54 34 28 23 27 26 23 23 23 23 22 21 20 21 21 22 35 42 68 61 50 49 39 59 65 47 40 33 38 36 45 42 38
84 99 100 99 87 65 61 64 66 67 65 44 32 24 29 26 25 24 23 23 23 22 22 22 21 22 26 41 60 62 53 52 45 46 62 61 36 29 32 30 36 70 52
68 79 100 99 92 72 61 62 68 69 69 56 33 26 30 27 26 25 24 25 24 23 23 22 22 22 22 25 54 60 69 71 56 45 41 43 30 29 28 28 30 43 53
46 84 78 85 85 83 74 69 76 81 75 65 41 30 30 29 27 26 25 26 25 24 24 23 23 24 22 22 25 49 41 44 51 45 44 41 31 36 30 29 30 37 41
58 58 67 68 69 78 87 76 73 70 69 66 49 33 30 31 28 27 27 26 26 26 26 25 24 24 24 23 23 22 27 28 45 53 53 48 36 33 32 33 32 34 38
83 50 60 64 65 71 81 87 82 78 75 70 58 39 31 33 30 29 28 28 28 28 28 28 28 27 27 27 27 26 26 26 25 41 42 49 51 52 44 39 39 39 41
80 62 62 80 55 51 73 89 91 86 80 76 66 47 31 33 30 30 30 30 30 30 30 30 30 32 32 32 33 33 38 51 44 50 52 60 54 61 54 60 56 55 55
Wind_Speed
19 24 23 20 19 15 13 8 5 3 2 2 3 4 4 4 4 5 5 6 6 7 7 7 7 6 6 7 7 7 6 4 4 4 4 4 2 3 4 5 8 4 4
25 26 24 21 18 17 12 8 5 4 3 4 4 4 4 5 6 6 7 7 7 7 8 7 7 7 7 8 8 8 8 7 7 8 10 10 4 3 2 2 1 5 5
27 27 25 21 20 16 12 9 6 4 4 5 5 5 5 6 7 7 8 8 8 9 9 9 9 9 9 9 8 7 7 8 9 11 15 5 6 4 3 1 1 1 3
27 27 25 23 20 16 12 9 7 6 6 6 5 5 6 7 7 8 8 9 9 9 9 9 9 9 9 8 9 8 7 7 7 9 8 7 6 4 3 3 3 3 4
25 24 24 23 19 15 13 10 7 7 7 6 6 7 7 8 9 9 9 8 9 9 8 8 8 8 8 8 9 9 9 8 6 7 6 7 5 6 4 3 5 5 4
24 23 24 23 19 16 13 10 8 7 8 7 7 8 9 9 9 9 9 8 9 9 9 8 8 8 8 8 8 8 8 8 9 7 8 7 3 7 7 6 6 6 6
25 23 26 23 16 16 13 11 9 8 8 8 8 9 10 10 9 9 8 8 9 9 9 8 8 8 7 7 8 8 8 7 9 8 8 3 6 7 8 7 5 4 4
24 21 26 22 16 16 13 11 9 9 8 8 9 10 10 10 8 8 9 8 8 8 8 8 7 8 8 8 8 8 7 7 9 9 10 9 7 8 8 6 5 5 5
22 24 24 22 17 16 14 11 10 9 9 9 9 10 9 9 8 8 8 8 7 7 7 8 8 8 8 8 8 8 8 9 9 11 9 10 11 10 9 8 8 8 7
22 23 24 21 20 18 15 13 11 10 9 9 9 9 9 8 8 7 7 7 7 7 7 7 8 8 8 8 9 9 9 14 10 11 10 15 16 14 13 13 12 10 11
23 24 23 20 19 17 16 15 12 11 10 10 10 10 9 7 7 6 6 6 7 7 7 7 8 8 8 10 11 10 13 10 11 10 13 14 15 11 11 11 11 10 11
31 27 22 20 19 18 16 16 13 12 11 10 10 10 7 6 6 5 5 6 6 6 7 8 8 8 11 8 9 13 9 9 11 9 10 11 9 10 6 6 8 14 12
28 27 24 20 20 19 16 16 14 13 12 12 11 11 9 7 6 5 5 5 6 6 7 8 8 8 9 8 8 9 9 9 8 6 8 8 13 11 12 11 11 9 7
25 27 25 21 21 19 18 16 14 14 14 13 12 12 10 8 7 5 3 4 4 5 6 7 7 8 9 10 9 9 9 8 8 5 7 6 9 9 9 9 12 10 11
26 28 27 23 21 19 19 17 15 15 14 13 13 12 10 8 7 7 5 4 4 5 5 7 7 6 7 9 9 9 9 9 9 6 9 7 6 7 9 10 11 12 12
28 28 30 22 21 20 17 18 17 16 15 14 13 12 11 9 8 7 6 5 5 5 6 6 6 6 9 8 9 9 8 9 9 8 6 8 8 7 7 7 10 11 10
29 29 35 25 22 22 19 19 18 17 16 15 13 12 11 10 9 8 7 5 5 6 6 7 7 6 8 9 9 9 8 8 8 8 7 6 9 10 9 8 8 8 7
29 31 33 26 27 25 23 21 19 18 17 16 14 13 12 11 10 8 7 6 6 6 6 7 7 6 6 7 8 9 7 8 8 7 8 8 8 8 10 10 8 7 6
29 32 31 31 30 28 24 23 21 19 17 16 15 14 13 12 11 9 8 7 7 7 7 7 6 7 6 7 8 8 7 7 7 6 6 7 9 8 8 9 9 8 7
27 31 31 33 31 30 28 25 23 21 19 17 17 16 15 14 12 11 9 9 8 7 7 7 7 7 7 7 6 6 5 5 6 5 4 5 8 9 8 9 9 8 7
26 31 34 36 33 33 32 31 28 24 21 20 19 17 16 15 13 12 11 10 9 9 8 8 7 7 7 8 5 5 4 3 3 3 4 4 6 7 7 7 7 5 7
28 29 36 37 35 35 34 32 27 24 23 21 20 18 17 16 14 13 12 11 10 9 9 8 8 7 6 6 5 5 4 2 2 3 2 3 6 6 8 6 5 5 4
28 35 38 38 38 36 34 32 28 26 24 25 22 21 20 18 16 15 14 13 12 11 9 8 8 8 6 6 7 6 2 3 4 1 2 2 5 5 5 6 5 3 3
32 31 35 37 39 38 36 38 35 33 29 26 24 23 21 20 18 17 15 14 13 11 10 9 8 7 7 6 5 4 4 6 3 5 1 1 4 3 5 5 5 5 6
35 34 35 37 36 36 39 40 37 33 28 26 26 24 22 21 20 18 17 15 14 13 11 9 9 7 6 5 5 4 3 4 4 6 5 2 3 6 6 5 5 5 7
35 35 36 41 37 36 42 43 41 36 33 31 27 26 25 24 22 20 18 16 15 13 11 10 8 7 6 5 5 4 4 3 2 4 4 1 2 2 5 5 4 5 7
Wind_Direction
165 168 164 158 159 169 173 176 189 174 148 121 106 101 94 90 91 87 81 77 72 67 63 59 54 48 39 35 37 42 51 64 76 78 77 79 80 67 69 85 84 25 25
158 165 162 158 160 174 178 182 177 156 128 105 100 89 83 83 83 82 79 74 70 67 64 60 57 52 45 40 39 43 49 60 74 85 71 50 85 95 124 111 68 24 13
156 162 161 157 171 179 180 174 165 152 136 127 111 97 90 85 78 75 73 73 74 71 70 67 64 61 57 52 48 47 49 56 68 85 86 74 27 75 80 69 321 351 4
154 161 162 165 176 184 177 169 162 156 141 127 114 109 103 96 89 86 84 79 77 74 72 69 67 65 63 60 58 57 57 61 72 91 83 91 30 5 358 359 340 337 7
154 156 167 169 181 179 172 164 163 154 139 129 125 117 109 103 100 96 92 90 86 79 73 66 61 57 55 54 53 53 57 64 71 69 61 88 64 354 348 337 324 322 316
154 156 173 171 182 176 170 163 160 153 142 133 130 123 114 107 103 97 93 91 86 81 75 69 64 60 57 57 57 56 58 63 62 61 64 48 341 347 350 348 340 332 321
153 173 171 175 180 177 168 164 159 156 147 137 134 124 116 109 104 99 94 88 81 76 72 67 62 58 56 56 56 57 59 64 71 68 55 35 9 351 354 356 346 339 342
156 164 169 175 178 175 168 164 159 159 150 142 137 126 118 113 106 101 94 85 77 70 67 63 58 55 53 52 52 54 58 64 64 55 52 7 12 2 5 11 14 8 1
162 169 172 176 183 175 169 167 161 162 154 147 138 127 123 116 107 101 91 81 71 67 63 64 62 58 54 53 54 57 63 65 64 68 53 43 38 34 34 41 42 41 34
168 171 177 176 180 175 171 171 165 166 160 151 140 130 126 118 112 102 95 82 70 66 66 64 63 61 60 58 59 64 75 73 65 59 47 56 48 45 49 56 60 45 43
172 183 178 168 169 169 176 173 170 170 162 154 148 139 135 125 115 105 89 80 72 72 70 67 68 69 71 66 65 67 69 68 73 72 82 77 71 61 62 65 66 54 53
175 184 167 170 166 165 170 174 176 172 168 161 157 146 137 144 140 113 96 81 78 72 71 71 72 76 67 57 53 61 72 77 78 75 112 98 67 51 73 60 77 62 54
179 181 164 173 171 169 174 169 177 171 170 172 169 157 164 158 147 123 101 83 75 71 71 75 73 82 92 82 75 79 86 82 74 69 100 98 79 70 63 63 59 68 62
182 182 166 180 176 175 176 176 181 181 179 177 174 170 168 161 149 139 132 102 82 77 78 86 83 88 88 94 89 85 86 85 86 39 89 93 88 78 65 71 63 62 56
193 193 178 185 183 178 185 182 187 186 182 183 177 173 170 164 160 159 147 127 109 101 98 96 95 89 93 91 91 90 89 84 83 53 71 77 77 73 75 62 65 77 64
202 198 189 189 184 187 186 189 188 191 188 187 182 178 172 174 175 165 154 141 126 115 110 109 110 106 101 101 97 86 76 80 83 87 53 60 56 47 39 50 61 58 83
207 202 198 197 191 194 192 193 193 193 193 190 186 181 180 182 179 170 163 154 140 127 117 112 105 108 119 111 105 101 95 80 70 73 81 68 45 48 43 40 40 58 78
212 208 202 201 198 199 199 198 199 198 197 195 192 187 185 185 179 177 170 161 150 138 127 120 109 116 119 114 115 107 99 95 82 70 69 63 58 42 40 40 40 42 42
215 205 205 203 204 201 200 200 202 201 200 200 197 194 190 188 182 181 179 166 159 149 137 126 116 124 129 134 121 121 117 104 83 83 68 53 48 45 37 40 41 42 42
220 214 205 203 208 205 206 203 205 204 204 203 201 199 192 190 186 186 182 175 166 156 144 135 124 129 140 135 128 122 119 110 89 105 71 40 25 35 40 39 34 38 37
218 212 204 208 210 205 207 206 208 206 206 207 206 205 198 193 190 188 187 180 173 164 157 148 135 129 139 133 123 122 113 100 83 83 80 53 24 32 39 29 43 56 19
221 212 205 212 210 210 214 213 214 213 214 214 210 206 203 198 194 194 189 185 181 171 164 156 149 141 139 153 173 167 160 83 14 108 79 59 26 37 24 33 33 49 39
217 210 205 215 213 213 217 213 210 212 213 211 209 208 206 201 197 197 193 190 185 179 172 162 159 154 148 138 162 163 170 146 160 73 100 77 32 10 12 11 22 25 359
214 214 212 211 217 213 215 216 219 224 219 217 214 211 207 204 200 199 196 193 189 185 177 168 164 159 155 147 137 146 170 160 158 153 28 353 352 10 5 358 355 347 339
212 216 212 212 211 217 218 221 222 221 221 220 215 212 207 206 203 201 199 196 191 190 183 173 167 165 161 156 153 150 138 126 125 141 139 132 13 335 339 341 340 329 327
216 218 215 213 210 211 218 219 223 219 217 216 215 211 209 208 206 202 200 197 195 194 189 182 173 174 169 163 160 160 156 147 150 120 122 343 309 276 321 332 313 319 313